[[{"header":{"parameterUnit":"m.s-1","parameterCategory":1,"la1":30.2991,"la2":30.254,"lo1":-89.0895,"lo2":-89.0444,"dy":0.0017,"dx":0.0017,"nx":28,"ny":28,"refTime":"2026-02-15T09:00:00:Z","depth":0,"parameterNumber":2,"parameterNumberName":"U-component_of_WINDS"},"data":[0,0,0,0,0,0,0,0,0,0,0,0,0,0,0,0,0,0,0,0,0,0,0,0,0,0,0,0,0,0,0,0,0,0,0,0,0,0,0,0,0,0,0,0,0,0,0,0,0,0,0,0,0,0,0,0,0,0,-1.7579,-1.7579,0,-1.7535,-1.7535,-1.7534,-1.7511,-1.7511,-1.7511,-1.7511,-1.7463,-1.7462,-1.7461,0,0,0,0,0,0,0,0,0,0,0,0,0,-1.764,-1.7639,-1.758,-1.7579,-1.7578,-1.7535,-1.7535,-1.7534,-1.7511,-1.7511,-1.7511,-1.7511,-1.7463,-1.7462,-1.7461,0,0,0,0,0,0,0,0,0,0,0,0,0,-1.7607,-1.7639,-1.758,-1.7562,-1.756,-1.7535,-1.7535,-1.7534,-1.7511,-1.7511,-1.7511,-1.7511,-1.7464,-1.7462,-1.746,-1.745,0,0,-1.7455,-1.7454,0,0,0,0,0,0,0,0,-1.7609,-1.7604,-1.7565,-1.7563,-1.756,-1.7528,-1.7539,-1.7506,-1.7511,-1.7529,-1.7511,-1.7511,-1.7485,-1.7481,-1.7473,-1.7448,-1.7446,-1.7455,-1.7453,-1.7453,-1.7452,0,0,0,0,0,0,0,-1.7611,-1.7606,-1.7562,-1.7564,-1.7562,-1.7555,-1.755,-1.7532,-1.7508,-1.7528,-1.7526,-1.7521,-1.7484,-1.7475,-1.7472,-1.7445,-1.7455,-1.7453,-1.7452,-1.7451,-1.7406,-1.7406,0,0,0,0,0,0,-1.7617,-1.7608,-1.7563,-1.7561,-1.7585,-1.7554,-1.7548,-1.7539,-1.7508,-1.7503,-1.7521,-1.752,-1.7478,-1.7474,-1.747,-1.7454,-1.7453,-1.7451,-1.745,-1.7406,-1.7406,-1.7406,0,0,0,0,0,0,-1.7618,-1.7613,-1.7565,-1.7584,-1.7577,-1.7553,-1.7542,-1.7538,-1.7529,-1.7503,-1.7498,-1.7517,-1.7478,-1.7472,-1.7455,-1.7452,-1.745,-1.7448,-1.7406,-1.7406,-1.7406,-1.7423,0,0,0,0,0,0,-1.762,-1.7614,-1.761,-1.7584,-1.7576,-1.7552,-1.7542,-1.7537,-1.7526,-1.7525,-1.7498,-1.7493,-1.7477,-1.7458,-1.7453,-1.7449,-1.7447,-1.7407,-1.7406,-1.7406,-1.7423,-1.7424,-1.7425,0,0,0,0,0,-1.7622,-1.7617,-1.761,-1.7605,-1.7572,-1.7552,-1.7547,-1.753,-1.7526,-1.7522,-1.7505,-1.7494,-1.7453,-1.7456,-1.745,-1.7446,-1.7407,-1.7406,-1.7406,-1.7422,-1.7424,-1.7425,0,0,0,0,0,0,-1.7643,-1.7613,-1.7606,-1.7592,-1.7575,-1.7548,-1.7542,-1.7532,-1.7515,-1.7514,-1.7492,-1.7486,-1.747,-1.7456,-1.746,-1.7433,-1.7429,-1.7427,-1.7443,-1.7444,-1.7445,-1.7448,-1.7445,0,0,0,0,0,-1.7647,-1.7634,-1.7608,-1.7598,-1.759,-1.7568,-1.7558,-1.7546,-1.7527,-1.7519,-1.7501,-1.7482,-1.7464,-1.7453,-1.7436,-1.7421,-1.7413,-1.7415,-1.7416,-1.7417,-1.7416,-1.7404,-1.7404,-1.7406,-1.7406,-1.7406,0,0,-1.7653,-1.7635,-1.7628,-1.7602,-1.7587,-1.7573,-1.7562,-1.7548,-1.7536,-1.7517,-1.7499,-1.7484,-1.7461,-1.7444,-1.7436,-1.7433,-1.7413,-1.7417,-1.7417,-1.7416,-1.7404,-1.7404,-1.7404,-1.7405,-1.7405,-1.7405,0,0,-1.7657,-1.7643,-1.7633,-1.7618,-1.7595,-1.758,-1.7577,-1.7552,-1.7541,-1.7523,-1.7507,-1.7493,-1.7464,-1.7448,-1.7436,-1.7431,-1.742,-1.7426,-1.743,-1.7419,-1.7419,-1.7419,-1.7415,-1.7415,-1.7425,-1.7425,-1.7425,0,-1.7668,-1.7647,-1.7628,-1.7614,-1.7602,-1.7584,-1.7572,-1.7559,-1.7531,-1.7523,-1.752,-1.7482,-1.7465,-1.7443,-1.7441,-1.7433,-1.7428,-1.7429,-1.7421,-1.742,-1.742,-1.7416,-1.7415,-1.7426,-1.7426,-1.7426,-1.7426,0,-1.766,-1.7645,-1.7639,-1.7613,-1.7601,-1.7588,-1.7566,-1.7555,-1.7544,-1.7528,-1.7508,-1.7487,-1.7464,-1.7458,-1.7447,-1.7433,-1.7432,-1.7425,-1.742,-1.7421,-1.7417,-1.7416,-1.7427,-1.7427,-1.7426,-1.7426,0,0,-1.7677,-1.764,-1.7638,-1.7625,-1.7598,-1.7586,-1.7571,-1.7549,-1.7539,-1.752,-1.7506,-1.7481,-1.7474,-1.746,-1.7447,-1.7437,-1.7432,-1.7431,-1.743,-1.7431,-1.7413,-1.7418,-1.7417,-1.7425,-1.7424,-1.7424,-1.7415,0,-1.7676,-1.765,-1.7632,-1.7613,-1.7598,-1.7579,-1.7566,-1.7547,-1.7532,-1.7516,-1.7498,-1.748,-1.7473,-1.7464,-1.7454,-1.7435,-1.7428,-1.7436,-1.7409,-1.7409,-1.7415,-1.7415,-1.7421,-1.7413,-1.7413,-1.7413,-1.7413,0,-1.7672,-1.7654,-1.7633,-1.7605,-1.7598,-1.7587,-1.7564,-1.755,-1.7527,-1.7516,-1.75,-1.7485,-1.7467,-1.7463,-1.7437,-1.7442,-1.743,-1.7419,-1.7418,-1.7414,-1.7411,-1.741,-1.7411,-1.7409,-1.7411,-1.7411,-1.7411,0,-1.7685,-1.7655,-1.7638,-1.7628,-1.7596,-1.7588,-1.7574,-1.7551,-1.7538,-1.7518,-1.7509,-1.7486,-1.7474,-1.7456,-1.7435,-1.7434,-1.7409,-1.7404,-1.7398,-1.7399,-1.7394,-1.7394,-1.7391,-1.7388,-1.7388,-1.7388,-1.7388,0,-1.7685,-1.7673,-1.7643,-1.7632,-1.7617,-1.7596,-1.758,-1.7565,-1.7544,-1.7529,-1.7512,-1.7497,-1.7471,-1.7453,-1.7436,-1.7415,-1.741,-1.7399,-1.7395,-1.7401,-1.7402,-1.7392,-1.7392,-1.7387,-1.7388,-1.7388,-1.7388,0,-1.7697,-1.7677,-1.7657,-1.7628,-1.762,-1.761,-1.7584,-1.7572,-1.7555,-1.7536,-1.753,-1.7503,-1.7481,-1.7458,-1.7428,-1.7417,-1.7396,-1.739,-1.7404,-1.7401,-1.7396,-1.7396,-1.7385,-1.7382,-1.7382,-1.7382,-1.7382,0,-1.7698,-1.7688,-1.7658,-1.7646,-1.7633,-1.7615,-1.7602,-1.758,-1.7566,-1.7538,-1.7529,-1.7505,-1.7485,-1.745,-1.7427,-1.7403,-1.7396,-1.7393,-1.7392,-1.7397,-1.7394,-1.7394,-1.7392,-1.7394,-1.7394,-1.7394,-1.7394,0,-1.7702,-1.7692,-1.7674,-1.7652,-1.7636,-1.7618,-1.7598,-1.7589,-1.7563,-1.7548,-1.7525,-1.751,-1.7478,-1.7454,-1.7427,-1.7411,-1.7397,-1.7395,-1.7392,-1.7397,-1.7405,-1.7399,-1.7404,-1.7395,-1.7395,-1.7395,-1.7395,-1.7395,-1.7707,-1.7697,-1.7673,-1.7653,-1.7636,-1.7618,-1.7604,-1.7586,-1.7567,-1.754,-1.7527,-1.7504,-1.7478,-1.7441,-1.7424,-1.7404,-1.7401,-1.7397,-1.7396,-1.7395,-1.7395,-1.7409,-1.7399,-1.7399,-1.7399,-1.7399,-1.7399,0,-1.7709,-1.7693,-1.7674,-1.7648,-1.7631,-1.7621,-1.7598,-1.7584,-1.7564,-1.7542,-1.7522,-1.7494,-1.747,-1.7445,-1.7419,-1.7407,-1.74,-1.7401,-1.7401,-1.7397,-1.7401,-1.7405,-1.7407,-1.7407,-1.7407,-1.7407,-1.7407,-1.7407,-1.7708,-1.7689,-1.7676,-1.7647,-1.763,-1.7608,-1.7595,-1.7577,-1.7559,-1.753,-1.751,-1.7493,-1.7469,-1.7441,-1.7417,-1.741,-1.7401,-1.7403,-1.7394,-1.7398,-1.7397,-1.7397,-1.7401,-1.7401,-1.7401,-1.7392,-1.7391,-1.7391]},{"header":{"parameterUnit":"m.s-1","parameterCategory":1,"la1":30.2991,"la2":30.254,"lo1":-89.0895,"lo2":-89.0444,"dy":0.0017,"dx":0.0017,"nx":28,"ny":28,"refTime":"2026-02-15T09:00:00:Z","depth":0,"parameterNumber":3,"parameterNumberName":"V-component_of_WINDS"},"data":[0,0,0,0,0,0,0,0,0,0,0,0,0,0,0,0,0,0,0,0,0,0,0,0,0,0,0,0,0,0,0,0,0,0,0,0,0,0,0,0,0,0,0,0,0,0,0,0,0,0,0,0,0,0,0,0,0,0,3.111,3.1109,0,3.1004,3.1003,3.1001,3.093,3.093,3.0929,3.0929,3.0822,3.0819,3.0817,0,0,0,0,0,0,0,0,0,0,0,0,0,3.1255,3.1252,3.111,3.1109,3.1107,3.1004,3.1003,3.1001,3.093,3.093,3.0929,3.0928,3.0822,3.082,3.0817,0,0,0,0,0,0,0,0,0,0,0,0,0,3.1175,3.1252,3.111,3.106,3.1054,3.1004,3.1003,3.1001,3.093,3.093,3.0929,3.0928,3.0823,3.082,3.0816,3.0809,0,0,3.0805,3.0804,0,0,0,0,0,0,0,0,3.1179,3.1169,3.1068,3.1063,3.1057,3.0979,3.1014,3.0937,3.0931,3.0977,3.0929,3.0928,3.0875,3.0867,3.0849,3.0804,3.08,3.0805,3.0803,3.0801,3.08,0,0,0,0,0,0,0,3.1185,3.1174,3.1068,3.1067,3.106,3.1043,3.1031,3.0999,3.0932,3.0973,3.0968,3.0956,3.0871,3.0852,3.0846,3.0798,3.0805,3.0802,3.08,3.0798,3.0745,3.0746,0,0,0,0,0,0,3.1198,3.1179,3.1071,3.1065,3.1117,3.1041,3.1027,3.1005,3.0932,3.092,3.0957,3.0953,3.0859,3.085,3.0842,3.083,3.0801,3.0798,3.0796,3.0745,3.0746,3.0746,0,0,0,0,0,0,3.1201,3.1189,3.1076,3.112,3.1105,3.1039,3.1015,3.1003,3.0984,3.0919,3.0907,3.095,3.0858,3.0847,3.0818,3.0826,3.0796,3.0793,3.0744,3.0745,3.0746,3.0807,0,0,0,0,0,0,3.1206,3.1191,3.1186,3.1121,3.1102,3.1053,3.1015,3.1002,3.0978,3.0972,3.0909,3.0898,3.0856,3.0824,3.0815,3.082,3.079,3.0743,3.0744,3.0746,3.0804,3.081,3.0816,0,0,0,0,0,3.1211,3.1208,3.1187,3.1174,3.1096,3.1054,3.1044,3.0995,3.0979,3.0975,3.0934,3.09,3.0826,3.0822,3.0811,3.0815,3.0742,3.0744,3.0746,3.0802,3.0809,3.0815,0,0,0,0,0,0,3.1276,3.1198,3.1174,3.1149,3.1109,3.1042,3.1035,3.1004,3.0968,3.0964,3.0906,3.0893,3.0871,3.084,3.0836,3.0806,3.078,3.078,3.0827,3.0833,3.0839,3.0847,3.0787,0,0,0,0,0,3.1287,3.1259,3.1193,3.1177,3.1158,3.1101,3.108,3.1047,3.1003,3.0986,3.0942,3.0902,3.087,3.085,3.0816,3.0799,3.0786,3.0797,3.0803,3.0808,3.0809,3.08,3.0805,3.0752,3.0752,3.0752,0,0,3.131,3.1264,3.125,3.1189,3.1154,3.1128,3.1087,3.106,3.104,3.0982,3.0953,3.092,3.0871,3.0849,3.0837,3.0823,3.082,3.081,3.0814,3.0812,3.0802,3.0807,3.0812,3.0753,3.0753,3.0753,0,0,3.1339,3.1301,3.1285,3.1251,3.1198,3.116,3.1157,3.1095,3.1071,3.1041,3.0998,3.0974,3.0919,3.0887,3.0863,3.0883,3.0852,3.0874,3.0903,3.0896,3.09,3.0903,3.0912,3.0916,3.0874,3.0875,3.0875,0,3.1375,3.1332,3.128,3.1257,3.1232,3.1179,3.1163,3.1133,3.1073,3.1058,3.1042,3.0974,3.0937,3.0908,3.0913,3.0895,3.0891,3.0881,3.0903,3.0906,3.0909,3.0917,3.092,3.0878,3.0877,3.0877,3.0877,0,3.138,3.1351,3.1345,3.1288,3.1263,3.1244,3.119,3.1171,3.114,3.1104,3.1076,3.103,3.0988,3.0978,3.0947,3.0946,3.0939,3.0914,3.0887,3.0918,3.0925,3.0927,3.0882,3.0881,3.088,3.0879,0,0,3.1446,3.1362,3.1361,3.1336,3.1275,3.1253,3.1232,3.119,3.1176,3.1137,3.1119,3.1075,3.1053,3.1026,3.0992,3.0985,3.1006,3.0961,3.0959,3.0973,3.1004,3.1024,3.1029,3.0985,3.0985,3.0986,3.1009,0,3.1467,3.1426,3.138,3.1355,3.133,3.128,3.1262,3.1224,3.119,3.1165,3.1127,3.1098,3.107,3.1054,3.1045,3.1006,3.1012,3.1003,3.097,3.0969,3.0985,3.1032,3.1052,3.1076,3.1011,3.1011,3.1012,0,3.1485,3.1449,3.1423,3.1367,3.1354,3.1339,3.1299,3.1274,3.1231,3.1207,3.1179,3.1142,3.112,3.1096,3.1065,3.106,3.1044,3.1023,3.1023,3.1019,3.0993,3.1031,3.1083,3.1087,3.1015,3.1015,3.1014,0,3.1539,3.1484,3.1461,3.1441,3.1374,3.1365,3.1337,3.1293,3.1272,3.1237,3.1223,3.1186,3.1166,3.1139,3.1094,3.1081,3.1069,3.1041,3.1051,3.1052,3.1051,3.1052,3.1103,3.1038,3.1038,3.1038,3.1038,0,3.1568,3.1554,3.1484,3.1471,3.1455,3.1402,3.1388,3.1356,3.1317,3.1298,3.1252,3.1235,3.1176,3.1152,3.1117,3.1099,3.1089,3.1071,3.1062,3.1076,3.1078,3.1065,3.1063,3.1039,3.1039,3.1039,3.1039,0,3.1625,3.1577,3.155,3.149,3.1474,3.1466,3.1415,3.14,3.1365,3.1341,3.1332,3.1277,3.1247,3.12,3.1155,3.1132,3.112,3.1104,3.1135,3.113,3.1143,3.1143,3.1188,3.1193,3.1124,3.1125,3.1126,0,3.1647,3.1635,3.1575,3.1558,3.1532,3.1506,3.1484,3.1433,3.1413,3.1364,3.1357,3.1323,3.1294,3.1249,3.1205,3.1172,3.1156,3.1174,3.1151,3.1166,3.1159,3.1161,3.116,3.118,3.1181,3.1182,3.1183,0,3.1693,3.167,3.1641,3.1604,3.158,3.1549,3.1515,3.1505,3.1446,3.1426,3.1395,3.1373,3.1329,3.1297,3.1258,3.123,3.1198,3.119,3.1191,3.1206,3.1225,3.1217,3.1152,3.119,3.1189,3.1188,3.1188,3.1188,3.1734,3.1722,3.1678,3.1648,3.1618,3.1588,3.1572,3.1536,3.1509,3.1469,3.144,3.1412,3.1371,3.1315,3.129,3.1268,3.1253,3.1254,3.1254,3.1256,3.1262,3.1228,3.126,3.126,3.126,3.1259,3.1259,0,3.1779,3.1748,3.1721,3.1676,3.1653,3.1624,3.1586,3.1569,3.1544,3.1509,3.1481,3.1447,3.1417,3.1371,3.1338,3.1329,3.1314,3.1322,3.1323,3.1318,3.1276,3.1279,3.1336,3.1336,3.1336,3.1336,3.1336,3.1336,3.1799,3.1779,3.1752,3.1717,3.1687,3.1658,3.164,3.1613,3.1584,3.1548,3.1523,3.1494,3.1455,3.1419,3.139,3.1378,3.1368,3.1382,3.1366,3.1327,3.132,3.1314,3.1317,3.138,3.138,3.141,3.141,3.141]}]]